User: anonymous   Login
Location: Unspecified
(0.0000°N, 0.0000°E)
Time: 10:20:46
(UTC+00:00)
Language:

IRAZU - Orbit

View from above orbital plane
View from above orbital plane
View from above satellite
View from above satellite

Ground track
Ground track

The orbit data is extracted from the following two-line orbital elements,

1 43468U 98067NR  19111.82884457 +.00027850 +00000-0 +26943-3 0  9993
2 43468 051.6370 265.6212 0001256 269.9030 090.1822 15.66193058153876
Epoch (UTC): 21 April 2019 19:53:32
Eccentricity: 0.0001256
inclination: 51.6370°
perigee height: 369 km
apogee height: 370 km
right ascension of ascending node: 265.6212°
argument of perigee: 269.9030°
revolutions per day: 15.66193058
mean anomaly at epoch: 90.1822°
orbit number at epoch: 15387

The dashed part of the orbit path shows where the satellite is in the earth's shadow,  

DLR